Regional Weather Roundup
Issued by NWS

Home | Current Version | Previous Version | Graphics & Text | Print | Product List | Glossary On
Versions: 1 2 3 4 5 6 7 8 9 10 11 12 13 14 15 16 17 18 19 20 21 22 23 24 25 26 27 28 29 30 31 32 33 34 35 36 37 38 39 40 41 42 43 44 45 46 47 48 49 50
000
ASUS43 KDTX 200710
RWRMI
MICHIGAN HOURLY REGIONAL WEATHER ROUNDUP
NATIONAL WEATHER SERVICE DETROIT/PONTIAC MI
300 AM EDT FRI OCT 20 2017

NOTE: "FAIR" INDICATES FEW OR NO CLOUDS BELOW 12,000 FEET WITH NO
SIGNIFICANT WEATHER AND/OR OBSTRUCTION TO VISIBILITY.

MIZ047>049-052>055-059>063-066>070-074>076-081>083-200800-
SOUTHEAST LOWER MICHIGAN

CITY           SKY/WX    TMP DP  RH WIND       PRES   REMARKS
ADRIAN         FAIR      42  34  73 CALM      30.22S
ALMA           FAIR      41  36  83 SE3       30.20R
ANN ARBOR      FAIR      39  35  86 SW3       30.21R
BAD AXE        FAIR      41  34  75 CALM      30.19S
CARO           FAIR      38  34  85 CALM      30.19S
DETROIT CITY   FAIR      49  34  56 CALM      30.21R
DETROIT        FAIR      50  33  52 W3        30.22R
FLINT          FAIR      40  35  83 CALM      30.22R
GROSSE ILE     FAIR      48  36  63 NW6       30.20S
HILLSDALE      FAIR      41  32  70 CALM      30.21S
HOWELL         FAIR      43  35  74 CALM      30.22R

CITY           SKY/WX    TMP DP  RH WIND       PRES   REMARKS
JACKSON        FAIR      42  36  79 CALM      30.22S
LAMBERTVILLE   FAIR      43  36  77 CALM      30.21S
LANSING        FAIR      44  35  70 CALM      30.22S
LAPEER         FAIR      38  37  95 CALM      30.21R
MASON          FAIR      43  37  80 CALM      30.22S
MONROE         FAIR      42  34  74 CALM      30.20S
MT. CLEMENS    FAIR      45  36  70 CALM      30.19R
PONTIAC        FAIR      47  35  63 SW3       30.20S
PORT HOPE        N/A     52  38  58 SW8       30.16R
PORT HURON     FAIR      41  36  81 CALM      30.20R
TRI CITIES     FAIR      46  36  68 SW6       30.20R
MIDLAND        FAIR      37  33  87 CALM      30.18R
TROY           FAIR      53  32  45 W3        30.22S
SAGINAW HB     FAIR      43  34  70 S6        30.19S
$$
MIZ043>046-050>051-056>058-064>065-071>073-077>080-200800-
SOUTHWEST LOWER MICHIGAN

CITY           SKY/WX    TMP DP  RH WIND       PRES   REMARKS
BATTLE CREEK   FAIR      42  37  82 CALM      30.21S
BENTON HARBOR  FAIR      45  36  70 SE3       30.18S
BIG RAPIDS     FAIR      40  36  84 CALM      30.17R
COLDWATER      FAIR      40  38  93 CALM      30.21S
FREMONT        FAIR      44  40  88 CALM      30.16S
HOLLAND        FAIR      45  35  68 SE3       30.18S
GRAND RAPIDS   FAIR      43  36  76 CALM      30.18F
IONIA          FAIR      44  33  65 S3        30.19S
KALAMAZOO      FAIR      41  37  86 CALM      30.20S
LUDINGTON      FAIR      44  40  88 E3        30.13S
MARSHALL       FAIR      38  37  96 CALM      30.21S
MOUNT PLEASANT FAIR      44  37  77 CALM      30.18R
MUSKEGON         N/A     45  41  86 E3        30.16F
SOUTH HAVEN    FAIR      43  38  83 CALM      30.18S
$$
MIZ016>042-200800-
NORTHERN LOWER MICHIGAN

CITY           SKY/WX    TMP DP  RH WIND       PRES   REMARKS
ALPENA         FAIR      50  33  52 SW6       30.14R
BEAVER ISLAND  FAIR      57  50  76 SW13      30.08S
BELLAIRE       FAIR      38  36  92 CALM      30.13S
CADILLAC       FAIR      39  32  77 CALM      30.15S
CHARLEVOIX     FAIR      48  41  76 SE5       30.14S
FRANKFORT      FAIR      49  46  92 CALM      30.12F
GAYLORD        FAIR      46  31  55 SW6       30.14R
GRAYLING       FAIR      35  30  82 CALM      30.15S
HARBOR SPRINGS FAIR      51  38  60 CALM      30.11F
HOUGHTON LAKE  FAIR      49  34  56 SW6       30.17R
MANISTEE       FAIR      42  39  89 E6        30.13F
OSCODA         FAIR      48  32  53 SW6       30.15S
PELLSTON       FAIR      45  38  76 SE5       30.11S
ROGERS CITY    FAIR      51  32  48 SW7       30.12S
TRAVERSE CITY  FAIR      52  39  61 VRB3      30.11F
$$
MIZ007>008-015-200800-
EASTERN UPPER MICHIGAN

CITY           SKY/WX    TMP DP  RH WIND       PRES   REMARKS
KINROSS        FAIR      51  48  89 SW6       30.08F
MACKINAC ISLAN FAIR      55  43  63 S9        30.09S
NEWBERRY       FAIR      50  49  97 S10       30.06S
S. S. MARIE    FAIR      43  38  82 E5        30.07F
MUNISING         N/A     54  39  57 S8        30.02R
$$
MIZ004>006-011>014-085-200800-
CENTRAL UPPER MICHIGAN

CITY           SKY/WX    TMP DP  RH WIND       PRES   REMARKS
MANISTIQUE     FAIR      53  47  81 S8        30.06S
ESCANABA       FAIR      52  39  61 SW6       30.05S
MENOMINEE      FAIR      52  42  69 SW6       30.07S
SAWYER-GWINN   FAIR      42  33  70 S7        30.03S
$$
MIZ001>003-009>011-084-200800-
WESTERN UPPER MICHIGAN

CITY           SKY/WX    TMP DP  RH WIND       PRES   REMARKS
IRON MOUNTAIN  FAIR      42  34  73 SE5       30.02F
HOUGHTON       FAIR      53  32  44 SW5       29.95F
COPPER HARBOR    N/A     55  35  47 SW9       29.94S
IRONWOOD       FAIR      57  36  45 SW10      29.96S
$$

ABBREVIATIONS USED IN REMARKS
   TC - TEMPERATURE IN CELSIUS
  WCI - WIND CHILL INDEX
   HX - HEAT INDEX
  VSB - VISIBILITY





USA.gov is the U.S. government's official web portal to all federal, state and local government web resources and services.